Vorticity
nan nan nan nan nan nan nan nan nan nan nan nan nan nan nan nan nan nan nan nan nan nan
nan 7 8 7 6 7 9 10 10 9 9 8 8 7 6 7 8 8 9 9 8 nan
nan 8 6 9 10 6 8 9 10 9 8 8 7 8 6 7 9 7 8 9 10 nan
nan 8 7 8 8 8 8 10 9 9 8 8 7 8 7 8 9 8 5 9 8 nan
nan 9 8 8 8 9 7 8 8 9 8 8 7 8 9 8 8 8 9 9 7 nan
nan 9 9 9 9 8 8 9 8 8 8 7 9 8 9 10 9 8 9 9 11 nan
nan 8 8 9 9 9 9 9 9 8 9 9 8 9 10 8 9 10 7 7 11 nan
nan 10 9 9 9 10 9 10 10 9 8 9 8 12 14 7 8 10 8 9 8 nan
nan 9 9 11 11 9 10 11 10 10 10 7 10 17 7 5 10 9 7 8 8 nan
nan 10 9 9 10 11 13 11 9 10 9 9 10 15 11 4 3 9 9 8 8 nan
nan 10 12 10 10 10 12 9 8 11 8 8 13 13 13 6 1 6 10 10 9 nan
nan 11 10 10 10 10 9 9 11 10 11 9 12 16 13 6 5 8 10 9 11 nan
nan 10 9 11 11 11 11 10 11 12 14 9 10 16 16 2 4 10 11 12 14 nan
nan nan nan nan nan nan nan nan nan nan nan nan nan nan nan nan nan nan nan nan nan nan
CAPE
0 0 0 0 0 0 0 0 0 0 0 0 0 0 0 0 0 0 0 0 0 0
8 0 0 0 0 0 0 0 0 0 0 0 0 0 0 0 0 0 0 0 0 0
6 3 2 0 0 0 0 0 0 0 0 0 0 0 0 0 0 0 0 0 0 0
1 0 4 7 1 0 0 0 0 0 0 0 0 0 0 0 0 0 0 0 0 0
2 8 9 8 7 7 2 0 0 0 0 0 0 0 0 0 0 0 0 0 0 0
16 22 12 12 6 8 6 2 0 0 0 0 0 0 0 0 0 0 0 0 0 0
18 5 40 22 11 10 14 8 2 0 0 0 0 0 0 0 0 0 0 0 0 0
2 0 8 13 12 9 18 10 6 1 0 0 0 0 0 0 0 0 0 0 0 0
10 1 0 2 0 2 6 0 2 1 0 0 0 0 0 0 0 0 0 0 0 0
19 18 12 1 0 0 2 2 0 0 0 0 0 0 0 0 0 0 0 0 0 0
50 4 3 4 0 3 1 1 1 1 0 1 0 0 0 0 0 0 0 0 0 0
20 4 2 1 7 14 13 3 5 7 8 6 2 0 0 0 0 0 0 0 0 0
8 5 7 14 16 17 13 5 2 4 7 1 4 0 0 0 0 0 0 0 0 0
89 72 64 10 12 5 5 4 11 9 7 7 8 5 0 0 0 5 0 0 0 0